Simultaneous Nadir Overpasses (SNOs) Predictions

Prediction of SNOs between AURA and NPP Satellite Orbit:

Table of predicted SNOs for the next 14.0 days since TLE Epoch: 8/18/2017
Index Date (AURA) Time (AURA) Lat,Lon (AURA) SZA (AURA ) Date (NPP) Time (NPP) Lat,Lon (NPP) SZA (NPP ) Distance(km) Time Diff (sec)
1 08/20/2017 19:08:16 79.27, 148.13 80.91 08/20/2017 19:07:57 79.28, 148.17 80.92 1.03 19
2 08/20/2017 19:57:37 -79.51, -42.66 99.43 08/20/2017 19:58:36 -79.50, -42.73 99.45 1.59 59
3 08/23/2017 10:35:26 -79.01, 94.74 97.88 08/23/2017 10:34:18 -79.00, 94.63 97.81 2.37 68
4 08/23/2017 11:24:43 79.36, -95.42 81.64 08/23/2017 11:24:52 79.36, -95.44 81.64 0.49 9
5 08/26/2017 02:51:49 -79.21,-148.12 97.29 08/26/2017 02:51:08 -79.22,-148.00 97.29 2.84 41
6 08/26/2017 03:41:09 79.44, 21.01 82.40 08/26/2017 03:41:46 79.43, 20.95 82.38 1.48 37
7 08/28/2017 19:08:15 -79.33, -31.47 96.57 08/28/2017 19:08:02 -79.34, -31.37 96.58 2.20 13
8 08/28/2017 19:57:36 79.52, 137.42 83.17 08/28/2017 19:58:41 79.51, 137.33 83.14 1.95 65
9 08/31/2017 10:35:24 79.04, -85.05 84.73 08/31/2017 10:34:22 79.04, -85.11 84.79 1.28 62




NCC Satellite Simultaneous Nadir Overpasses (SNOs) Prediction Service
